Regional Weather Roundup
Issued by NWS Nashville, TN

Home | Current Version | Previous Version | Text Only | Print | Product List | Glossary On
Versions: 1 2 3 4 5 6 7 8 9 10 11 12 13 14 15 16 17 18 19 20 21 22 23 24 25 26 27 28 29 30 31 32 33 34 35 36 37 38 39 40 41 42 43 44 45 46 47 48 49 50
000
ASUS44 KOHX 021010
RWROHX
MIDDLE TENNESSEE HOURLY WEATHER ROUNDUP
NATIONAL WEATHER SERVICE NASHVILLE TN
500 AM CDT SUN AUG 02 2015

NOTE: "FAIR" INDICATES FEW OR NO CLOUDS BELOW 12,000 FEET WITH
NO SIGNIFICANT WEATHER AND/OR OBSTRUCTIONS TO VISIBILITY.

* THESE REPORTS ARE NOT UNDER NWS QUALITY CONTROL AND MAY NOT
  REPORT WEATHER SUCH AS PRECIPITATION AND FOG.


TNZ005>011-023>034-057-059-062>066-078-080-021100
...NORTHERN MIDDLE TENNESSEE...

CITY           SKY/WX    TMP DP  RH WIND       PRES   REMARKS
CLARKSVILLE    CLEAR     62  61  96 CALM      29.98S
CROSSVILLE     PTCLDY    61  57  87 CALM      30.03F
DICKSON        CLEAR     64  63  94 CALM      29.99R
NASHVILLE      PTCLDY    64  63  96 CALM      29.98S
ROCKWOOD       PTCLDY    61  59  93 CALM      30.02S
SMYRNA         PTCLDY    62  61  97 CALM      29.99S
$$
TNZ056-058-060-061-075>077-079-093>097-021100
...SOUTHERN MIDDLE TENNESSEE...

CITY           SKY/WX    TMP DP  RH WIND       PRES   REMARKS
COLUMBIA       MOCLDY    66  66 100 CALM      29.97S
LEWISBURG      PTCLDY    61  60  96 CALM      29.97F
MCMINNVILLE    CLEAR     63  63 100 CALM      29.99S
SHELBYVILLE    CLEAR     63  63 100 CALM      29.99R
TULLAHOMA      CLEAR     63  59  88 CALM      30.00R
WINCHESTER     MOCLDY    61  61 100 CALM      29.99R VSB 1
$$


...KEY TO REMARKS...
VSB - VISIBILITY IN MILES
WCI - WIND CHILL INDEX
HX  - HEAT INDEX




USA.gov is the U.S. government's official web portal to all federal, state and local government web resources and services.